This is the latest recevied weather packets stored in our database for station/object K5GTX. If no packets are shown the sender has not sent any weather packets the latest 10 day(s).
| Time | Temp. | Humidity | Pressure | Rain* | Wind** | Luminosity | Snow |
|---|---|---|---|---|---|---|---|
| 1777935653 | 27.22° C | 99% | 1012.9 hPa | 202.69 mm | - | 229 W/m² | - |
| 1777935349 | 27.78° C | 99% | 1012.7 hPa | 202.69 mm | - | 263 W/m² | - |
| 1777935046 | 27.22° C | 99% | 1013 hPa | 0 mm | - | 301 W/m² | - |
| 1777934743 | 27.22° C | 99% | 1013.1 hPa | 0 mm | - | 296 W/m² | - |
| 1777934440 | 26.67° C | 99% | 1013.2 hPa | 0 mm | - | 111 W/m² | - |
| 1777934137 | 27.22° C | 99% | 1013.2 hPa | 0 mm | - | 240 W/m² | - |
| 1777933833 | 27.78° C | 99% | 1012.9 hPa | 0 mm | - | 213 W/m² | - |
| 1777933530 | 27.22° C | 99% | 1013 hPa | 0 mm | - | 247 W/m² | - |
| 1777933227 | 27.78° C | 99% | 1013.1 hPa | 0 mm | - | 358 W/m² | - |
| 1777932924 | 27.78° C | 99% | 1013.1 hPa | 0 mm | - | 371 W/m² | - |
| 1777932621 | 27.78° C | 99% | 1013.2 hPa | 0 mm | - | 398 W/m² | - |
| 1777932318 | 27.78° C | 99% | 1013.2 hPa | 0 mm | - | 429 W/m² | - |
| 1777932015 | 27.78° C | 99% | 1013.3 hPa | 0 mm | - | 338 W/m² | - |
| 1777931711 | 27.78° C | 99% | 1013.3 hPa | 0 mm | - | 263 W/m² | - |
| 1777931409 | 28.33° C | 99% | 1013.5 hPa | 0 mm | - | 204 W/m² | - |
| 1777931104 | 27.78° C | 99% | 1013.5 hPa | 0 mm | - | 418 W/m² | - |
| 1777930801 | 27.78° C | 99% | 1013.6 hPa | 0 mm | - | 475 W/m² | - |
| 1777930497 | 27.22° C | 99% | 1013.7 hPa | 0 mm | - | 358 W/m² | - |
| 1777930195 | 27.78° C | 99% | 1013.7 hPa | 0 mm | - | 360 W/m² | - |
| 1777929890 | 27.22° C | 99% | 1013.4 hPa | 0 mm | - | 378 W/m² | - |
| 1777929588 | 27.22° C | 99% | 1014.1 hPa | 0 mm | - | 142 W/m² | - |
| 1777929284 | 27.22° C | 99% | 1014 hPa | 0 mm | - | 290 W/m² | - |
| 1777928982 | 27.22° C | 99% | 1014 hPa | 0 mm | - | 284 W/m² | - |
| 1777928679 | 27.78° C | 99% | 1014.2 hPa | 0 mm | - | 481 W/m² | - |
| 1777928376 | 27.78° C | 99% | 1014.4 hPa | 0 mm | - | 477 W/m² | - |
* Rain latest hour (hover to see other rain measurements)
** Current wind speed in m/s (hover to see current wind gust speed)